Temp_Advection
nan nan nan nan nan nan nan nan nan nan nan nan nan nan nan nan nan nan nan nan nan nan
nan 0 0 0 0 0 0 0 0 0 0 0 0 0 0 0 0 0 0 0 -0 nan
nan 0 0 0 0 0 0 0 0 0 0 0 0 0 0 0 0 0 1 1 0 nan
nan 0 0 0 0 0 0 0 0 0 0 0 0 0 0 0 0 0 1 1 0 nan
nan 0 0 0 0 0 0 0 0 0 0 0 0 0 0 0 0 0 1 1 0 nan
nan 0 0 0 0 0 0 0 -0 -0 0 0 0 0 0 0 1 1 1 1 -1 nan
nan 0 0 0 0 0 0 0 0 0 0 -0 -0 -0 0 0 1 1 1 1 -0 nan
nan 0 0 0 0 0 0 0 0 0 -0 -0 -0 -0 -0 0 0 0 0 1 1 nan
nan 0 0 0 0 0 0 0 0 -0 -0 -0 -0 -0 -0 0 0 0 0 1 0 nan
nan 0 0 0 0 0 0 0 0 -0 -0 -0 -0 -0 -0 -0 0 0 0 1 0 nan
nan 0 0 0 0 0 0 0 -0 -0 -0 -0 -0 -0 -0 -0 0 0 0 1 0 nan
nan 0 0 0 0 0 0 0 -0 -0 -0 -0 -0 -0 -0 -0 0 0 0 0 1 nan
nan 0 0 0 0 0 0 0 0 -0 -0 -0 -0 -0 -0 -1 -0 0 -0 -0 0 nan
nan nan nan nan nan nan nan nan nan nan nan nan nan nan nan nan nan nan nan nan nan nan
Wind_Speed
11 12 15 18 18 21 22 24 23 25 24 30 32 30 32 34 35 36 36 37 35 41
13 13 16 19 21 22 23 25 25 27 31 30 30 32 32 34 35 34 33 36 45 54
15 16 17 18 20 22 24 24 26 30 30 33 32 32 34 33 33 33 39 46 39 41
18 16 17 20 22 23 23 26 28 31 32 33 33 33 32 34 37 38 40 44 43 45
17 17 19 21 22 23 25 27 29 32 33 33 33 33 35 36 36 38 42 44 46 45
18 18 21 22 21 24 28 28 30 32 32 34 35 34 34 34 36 38 42 42 45 43
19 20 20 21 24 26 26 28 30 33 33 33 33 32 35 34 35 38 41 41 46 43
19 20 21 23 26 26 26 28 31 34 31 31 32 32 30 33 36 38 38 43 49 38
18 20 22 23 24 25 28 29 31 30 32 31 31 30 31 32 35 36 39 43 43 38
18 18 20 21 24 26 28 31 30 30 29 31 31 30 29 30 33 35 39 42 37 40
17 18 19 22 26 28 29 29 29 31 29 29 30 28 28 30 31 34 39 40 39 39
15 18 20 23 26 27 28 30 31 29 28 30 30 29 29 28 30 32 38 38 41 39
17 19 22 24 26 26 28 29 29 29 28 27 27 26 26 28 29 33 35 35 40 38
17 19 21 23 25 27 27 28 26 27 26 23 25 30 27 26 27 30 30 37 38 37
Wind_Direction
281 279 284 283 289 293 299 300 302 305 303 298 305 302 299 300 299 300 295 295 290 288
271 274 275 281 288 293 296 300 300 300 302 304 302 301 301 299 302 303 294 294 296 298
265 274 276 282 287 287 297 301 299 302 301 301 301 302 300 300 298 297 295 304 306 304
269 277 278 280 284 295 298 296 299 301 304 303 300 303 300 298 298 298 302 306 309 309
270 271 278 286 288 292 293 296 300 301 302 303 299 300 299 299 300 300 305 309 312 310
265 274 277 283 291 292 292 297 301 302 302 301 300 300 300 300 297 300 310 312 314 310
264 276 284 288 290 293 297 300 301 301 303 303 303 302 301 301 300 306 311 312 314 319
268 278 283 287 291 296 300 301 303 305 305 304 302 302 303 302 304 308 311 311 315 320
270 278 284 290 296 298 302 304 306 306 305 307 305 303 303 301 304 308 309 314 319 325
270 277 285 292 295 299 302 306 307 307 307 307 309 307 305 305 305 306 307 316 323 332
268 279 286 289 294 298 308 309 308 308 313 311 310 311 309 308 307 308 311 319 327 330
270 276 284 290 298 306 308 309 311 310 313 312 313 313 312 312 309 308 315 322 324 325
267 279 290 300 305 307 307 310 310 312 313 313 311 314 313 314 311 313 317 316 318 326
274 284 292 300 301 304 307 311 312 311 316 311 303 304 304 315 314 313 316 314 320 331
Height
1505 1504 1503 1503 1502 1501 1499 1497 1496 1494 1493 1490 1487 1483 1481 1477 1473 1469 1466 1462 1458 1453
1500 1500 1499 1499 1498 1496 1495 1493 1491 1489 1486 1482 1480 1477 1473 1469 1465 1462 1458 1454 1449 1443
1495 1494 1494 1494 1492 1491 1489 1488 1485 1483 1479 1476 1473 1470 1466 1461 1458 1455 1450 1446 1437 1431
1489 1489 1489 1488 1487 1486 1484 1483 1480 1477 1473 1469 1465 1462 1458 1454 1450 1446 1441 1436 1428 1419
1484 1484 1484 1483 1482 1481 1479 1477 1475 1470 1466 1462 1458 1455 1451 1446 1441 1437 1432 1425 1418 1409
1479 1480 1479 1478 1477 1476 1474 1471 1468 1464 1460 1456 1452 1446 1444 1439 1434 1429 1424 1416 1408 1401
1474 1474 1473 1472 1471 1469 1468 1465 1461 1458 1453 1449 1445 1440 1436 1432 1427 1422 1417 1409 1401 1393
1469 1469 1468 1467 1465 1463 1462 1460 1456 1451 1447 1442 1439 1434 1430 1426 1420 1415 1409 1403 1393 1384
1464 1464 1463 1461 1460 1458 1456 1453 1449 1446 1441 1436 1432 1428 1424 1420 1414 1408 1403 1396 1388 1377
1459 1458 1457 1456 1454 1452 1449 1446 1444 1439 1435 1429 1425 1421 1417 1413 1409 1402 1396 1392 1386 1375
1453 1453 1452 1450 1448 1445 1443 1441 1436 1434 1429 1424 1419 1415 1411 1407 1403 1397 1389 1383 1377 1373
1448 1447 1445 1443 1441 1439 1437 1435 1431 1428 1423 1419 1414 1410 1405 1401 1397 1392 1385 1377 1372 1366
1442 1441 1439 1437 1435 1433 1432 1429 1425 1421 1418 1414 1410 1405 1400 1397 1392 1387 1381 1375 1368 1360
1437 1435 1434 1432 1430 1428 1425 1423 1420 1417 1413 1410 1405 1399 1394 1391 1388 1383 1377 1370 1361 1354